Location: El Toro
(33.6470°N, 117.6837°W)
Time: 00:13:27
(UTC+00:00)

Daily predictions for brighter satellites

Satellite Brightness Start Highest point End
(mag) Time Altitude Azimuth Time Altitude Azimuth Time Altitude Azimuth
CZ-2D R/B 3.3 02:10:27 10° SSE 02:14:14 59° ENE 02:18:04 10° N
IRS-1C Rocket 4.3 02:09:36 10° SSE 02:14:51 82° WSW 02:20:08 10° NNW
CZ-2C R/B 4.2 02:12:06 10° ENE 02:15:02 14° E 02:17:59 10° SE
SL-24 R/B 4.1 02:10:57 10° SSE 02:15:13 81° ENE 02:19:41 10° N
Okean-O 2.6 02:12:37 10° SSE 02:16:59 63° ENE 02:21:22 10° N
SL-16 R/B 3.0 02:11:37 10° NNW 02:17:10 58° WSW 02:22:41 10° S
SWARM C 4.5 02:15:11 10° N 02:18:31 87° E 02:21:51 10° S
SWARM A 4.3 02:15:19 10° N 02:18:39 83° W 02:21:58 10° S
Cosmos 2263 Rocket 2.3 02:14:42 10° SSW 02:20:15 85° WNW 02:25:51 10° NNE
Cosmos 990 Rocket 4.3 02:15:48 10° SSW 02:20:55 73° WNW 02:26:04 10° NNE
NOSS 2-2 (E) 2.9 02:18:18 10° SSW 02:21:50 79° ESE 02:25:24 10° NNE
DELTA 2 R/B (1) 4.1 02:16:43 10° WNW 02:22:07 51° N 02:27:31 10° E
Cosmos 1378 3.7 02:19:13 10° NNW 02:22:53 61° W 02:26:32 10° S
Meteor 2-9 Rocket 4.3 02:18:14 10° S 02:24:00 66° E 02:29:48 10° NNE
CZ-2C R/B 3.5 02:20:49 10° SE 02:25:35 42° ENE 02:30:40 10° N
Cosmos 1844 Rocket 3.9 02:24:01 10° SE 02:27:44 19° E 02:31:28 10° ENE
SEDSat Delta rocket 4.3 02:24:28 10° W 02:29:35 40° SSW 02:34:03 10° SE
GOES 2 Rocket 4.5 02:26:41 10° SSW 02:29:53 21° SSE 02:32:56 11° ESE
Cosmos 923 Rocket 4.0 02:25:00 10° NNW 02:30:14 89° WSW 02:35:25 10° SSE
NOSS 2-2 (D) 2.9 02:26:48 10° SSW 02:30:22 74° ESE 02:33:54 10° NE
YAOGAN 1 2.6 02:26:15 10° SSE 02:30:30 63° ENE 02:34:48 10° N
USA 116 3.5 02:27:01 10° NNE 02:30:35 76° E 02:34:37 10° S
GP-B 3.7 02:31:10 10° N 02:35:34 62° W 02:39:56 10° SSW
ATLAS 5 CENTAUR R/B 3.4 02:33:30 10° NNW 02:37:08 42° ENE 02:48:30 10° SE
Okean 2 3.4 02:34:22 10° N 02:38:30 63° E 02:42:36 10° SSE
Cosmos 1943 3.5 02:37:24 10° N 02:42:50 46° ENE 02:48:15 10° SE
Cosmos 1975 3.6 02:40:52 10° SSW 02:44:52 57° W 02:48:54 10° N
Cosmos 1464 Rocket 4.3 02:39:32 10° SSE 02:45:15 43° E 02:50:59 10° NNE
CZ-4 R/B 2.0 02:42:53 10° S 02:47:02 63° WSW 02:51:14 10° NNW
CSL-04 Debris 4.1 02:43:12 10° SSE 02:48:33 70° ENE 02:53:54 10° N
Cosmos 1782 Rocket 4.0 02:46:29 10° SSW 02:50:50 67° W 02:55:14 10° N
Cosmos 2151 Rocket 4.4 02:49:51 10° SSE 02:53:38 28° E 02:57:28 10° NNE
CZ-2C R/B 0.9 02:51:01 10° W 02:54:37 75° N 02:56:26 25° ENE
Meteor 1-21 4.1 02:51:05 10° N 02:56:41 75° E 03:02:15 10° SSE
CSL-04 Rocket 3.6 02:52:25 10° SSE 02:57:47 81° ENE 03:03:16 10° N
Cosmos 1025 Rocket 4.0 02:56:36 10° NNE 03:00:15 25° ENE 03:00:46 25° E
Cosmos 1603 3.6 02:57:00 10° NNW 03:02:41 84° ENE 03:08:17 10° SSE
Milstar 3 Cent rocket 3.2 02:57:32 10° SW 03:03:52 31° SSE 03:06:06 22° SE
Cosmos 372 Rocket 3.9 03:01:22 10° SSW 03:06:36 86° ESE 03:11:52 10° NNE
Cosmos 1842 3.9 03:03:11 10° NNW 03:06:58 55° W 03:10:44 10° S
Cosmos 2150 Rocket 4.1 03:06:31 10° S 03:11:42 57° ESE 03:17:00 10° NNE
Cosmos 1891 Rocket 4.4 03:06:39 10° S 03:12:50 82° E 03:18:56 10° N
DMSP B5D2-2 4.3 03:10:00 10° NNE 03:15:05 46° E 03:20:07 10° S
SJ-6B 4.0 03:19:56 25° NE 03:19:56 25° NE 03:22:07 10° N
Cosmos 1707 2.6 03:17:04 10° N 03:20:52 66° E 03:21:45 48° SE
Cosmos 1975 Rocket 3.6 03:17:09 10° NNW 03:21:23 58° W 03:25:36 10° S
Cosmos 2084 Rocket 3.5 03:17:06 10° NNW 03:21:36 86° ENE 03:23:22 37° SSE
Cosmos 1125 Rocket 3.7 03:16:41 10° S 03:21:40 44° ESE 03:26:42 10° NNE
ISS -1.2 03:20:56 10° W 03:23:30 20° NNW 03:26:03 10° NNE
MOS 1 Rocket 4.1 03:19:44 10° N 03:23:58 48° WNW 03:28:03 10° SSW
Delta 128 4.4 03:22:01 10° WSW 03:26:25 36° S 03:27:21 32° SSE
USA 102 4.2 03:37:51 66° SW 03:38:07 68° WSW 03:44:23 10° NNW
H-2A R/B 3.0 03:35:07 10° S 03:39:47 44° W 03:44:33 10° NNW
USA 234 3.3 03:34:13 10° NE 03:40:46 80° NW 03:47:19 10° SW
Cosmos 2034 Rocket 4.0 03:35:55 10° S 03:42:17 88° W 03:48:40 10° N
SL-08 RB Rocket 3.8 03:43:25 40° S 03:45:01 75° WSW 03:49:37 10° NNW
ARGOS 3.7 03:40:03 10° S 03:45:17 57° W 03:50:34 10° NNW
Nadezhda 4 Rocket 3.8 03:40:00 10° N 03:46:06 69° E 03:47:45 48° SSE
In-Cosmos 22 4.0 03:42:41 10° N 03:48:00 90° W 03:49:36 47° S
Okean 2 Rocket 4.5 03:46:00 10° SSW 03:50:13 39° W 03:54:25 10° N
CZ-2C R/B 3.2 03:50:09 10° N 03:55:37 61° WNW 04:01:08 10° SSW
USA 186 4.2 03:57:54 21° NW 03:57:54 21° NW 03:59:12 10° NNW
MOS 1 4.2 03:56:46 57° SSE 03:58:02 88° WSW 04:03:47 10° NNW
Cosmos 1844 3.8 03:54:32 10° SSW 04:00:15 77° WNW 04:05:57 10° NNE
ATLAS 2A CENTAUR R/B 4.5 02:55:23 10° W 04:04:54 68° SSW 04:10:53 43° SE
DELTA 2 R/B (1) 3.6 04:03:13 10° WNW 04:08:23 70° WSW 04:08:23 70° WSW
BREEZE-M DEB (TANK) 4.4 03:52:58 10° WNW 04:11:07 72° NNE 04:12:07 63° ENE
Cosmos 1844 Rocket 3.6 04:05:50 10° SW 04:11:09 47° WNW 04:16:31 10° N
Ariane Rocket 3.7 04:11:03 45° SW 04:11:56 51° W 04:16:52 10° NNW
ATLAS 2AS CENTAUR R/B 2.9 04:08:12 10° SSW 04:15:58 70° ESE 04:23:53 10° NE
Cosmos 2285 Rocket 4.3 04:15:15 10° SSW 04:21:27 64° WNW 04:27:45 10° N
CENTAUR R/B 3.5 04:26:54 10° NNW 04:34:28 53° NE 04:34:28 53° NE
USA 238 DEB 4.0 04:36:36 10° NNW 04:42:53 68° NNW 04:42:53 68° NNW
USA 238 4.0 04:36:42 10° NNW 04:42:58 67° NNW 04:42:58 67° NNW
Cosmos 1697 Rocket 4.3 11:01:20 25° N 11:01:20 25° N 11:03:47 10° N
CZ-2C R/B 4.5 10:55:23 10° NE 10:59:36 25° E 11:02:27 16° SE
Cosmos 1980 Rocket 2.9 11:04:19 47° N 11:04:19 47° N 11:08:19 10° NNE
Cosmos 2322 Rocket 4.3 11:04:27 10° SSE 11:08:36 22° E 11:12:51 10° NE
SL-16 R/B 3.7 11:13:21 20° SSE 11:16:20 33° ESE 11:21:20 10° NE
Cosmos 2263 Rocket 4.5 11:12:58 10° N 11:17:22 23° ENE 11:21:45 10° ESE
Meteor 1-14 Rocket 4.3 11:19:05 10° N 11:24:40 70° E 11:30:09 10° SSE
Lacrosse 5 3.8 11:27:59 18° NNW 11:27:59 18° NNW 11:30:31 10° N
Cosmos 1238 Rocket 3.9 11:23:42 10° N 11:30:17 82° E 11:36:08 10° S
Cosmos 921 Rocket 3.7 11:32:00 48° NNE 11:32:00 48° NNE 11:35:04 10° NNE
NOSS 3-3 (A) 3.6 11:32:28 71° W 11:32:47 73° WNW 11:38:58 10° NNE
NOSS 3-3 (C) 3.6 11:32:38 71° W 11:32:55 73° WNW 11:39:02 10° NNE
Meteor 2-6 Rocket 4.3 11:31:13 41° S 11:33:15 76° E 11:38:59 10° NNE
Cosmos 44 4.4 11:37:02 30° NNW 11:37:02 30° NNW 11:39:48 10° NNE
Cosmos 2228 Rocket 3.6 11:38:52 50° N 11:38:52 50° N 11:42:10 10° N
X-37B 3.6 11:42:47 11° N 11:42:47 11° N 11:43:23 10° NNE
Meteor 1-4 Rocket 3.2 11:43:45 49° E 11:43:45 49° E 11:46:54 10° NNE
